Weather History for KLWD - September, 2012

Change the Weather History Date:

Saturday, September 1, 2012

  Actual Average Record
Temperature  
Mean Temperature 72 °F 71 °F  
Max Temperature 77 °F 81 °F 97 °F (1975)
Min Temperature 67 °F 60 °F 38 °F (1949)
Degree Days  
Heating Degree Days 0 1  
Month to date heating degree days 0 1  
Since 1 July heating degree days 1 9  
Cooling Degree Days 7 6  
Month to date cooling degree days 7 6  
Year to date cooling degree days 1218 844  
Growing Degree Days 22 (Base 50)    
Moisture  
Dew Point 67 °F    
Average Humidity 79    
Maximum Humidity 93    
Minimum Humidity 64    
Precipitation  
Precipitation 0.04 in 0.15 in 1.30 in (1977)
Month to date precipitation 0.04 0.15  
Sea Level Pressure  
Sea Level Pressure 29.92 in    
Wind  
Wind Speed 13 mph (NNE)    
Max Wind Speed 23 mph    
Max Gust Speed 30 mph    
Visibility 10 miles    
Events Rain    
T = Trace of Precipitation, MM = Missing Value Source: NWS Daily Summary

Daily Weather History Graph

Daily Weather History Graph

Search for Another Location

Airport or City:

Trip Planner

Search our weather history database for the weather conditions in past years. The results will help you decide how hot, cold, wet, or windy it might be!

Date:

Astronomy

Sep. 01, 2012 Rise Set
Actual Time 6:43 AM CDT 7:46 PM CDT
Civil Twilight 6:15 AM CDT 8:14 PM CDT
Nautical Twilight 5:41 AM CDT 8:48 PM CDT
Astronomical Twilight 5:06 AM CDT 9:22 PM CDT
Moon 8:03 PM CDT (9/1) 7:52 AM CDT (9/1)
Length of Visible Light 13h 59m
Length of Day
13h 03m
Full, 99% of the Moon is Illuminated
Sep 1
Full
Sep 8
Last Quarter
Sep 15
New
Sep 22
First Quarter
Sep 29
Full

Hourly Weather History & Observations

Time (CDT) Temp. Dew Point Humidity Pressure Visibility Wind Dir Wind Speed Gust Speed Precip Events Conditions
12:32 AM 73.4 °F 66.2 °F 78% 29.95 in 10.0 mi NE 16.1 mph - N/A   Scattered Clouds
12:53 AM 73.9 °F 66.0 °F 76% 29.91 in 10.0 mi NE 17.3 mph 23.0 mph N/A   Partly Cloudy
1:53 AM 75.0 °F 66.9 °F 76% 29.90 in 10.0 mi NE 13.8 mph - N/A   Mostly Cloudy
2:16 AM 75.2 °F 68.0 °F 78% 29.93 in 10.0 mi NE 16.1 mph 24.2 mph N/A   Partly Cloudy
2:53 AM 73.0 °F 69.1 °F 87% 29.90 in 10.0 mi NE 12.7 mph - 0.00 in Rain Light Rain
3:24 AM 71.6 °F 69.8 °F 94% 29.92 in 8.0 mi NNE 10.4 mph - 0.01 in Rain Light Rain
3:53 AM 72.0 °F 69.1 °F 91% 29.89 in 9.0 mi NNE 11.5 mph - 0.03 in Rain Light Rain
4:21 AM 73.4 °F 69.8 °F 88% 29.92 in 10.0 mi NNE 13.8 mph - 0.01 in   Scattered Clouds
4:53 AM 73.0 °F 69.1 °F 87% 29.88 in 10.0 mi NE 13.8 mph - 0.01 in   Scattered Clouds
5:53 AM 73.0 °F 69.1 °F 87% 29.88 in 10.0 mi NNE 13.8 mph - N/A   Partly Cloudy
6:53 AM 73.0 °F 69.1 °F 87% 29.90 in 10.0 mi NNE 15.0 mph - N/A   Clear
7:11 AM 73.4 °F 69.8 °F 88% 29.93 in 10.0 mi NNE 13.8 mph - 0.00 in Rain Light Rain
7:53 AM 72.0 °F 69.1 °F 91% 29.92 in 10.0 mi NNE 11.5 mph - 0.00 in   Mostly Cloudy
8:04 AM 73.4 °F 69.8 °F 88% 29.94 in 10.0 mi NNE 12.7 mph - N/A   Mostly Cloudy
8:53 AM 73.0 °F 69.1 °F 87% 29.91 in 10.0 mi North 15.0 mph - N/A   Scattered Clouds
9:01 AM 73.4 °F 69.8 °F 88% 29.94 in 10.0 mi NNE 15.0 mph - N/A   Mostly Cloudy
9:17 AM 73.4 °F 69.8 °F 88% 29.93 in 10.0 mi North 17.3 mph 24.2 mph N/A   Scattered Clouds
9:53 AM 73.9 °F 69.1 °F 85% 29.91 in 10.0 mi NNE 18.4 mph 23.0 mph N/A   Partly Cloudy
10:15 AM 73.4 °F 69.8 °F 88% 29.94 in 10.0 mi NNE 18.4 mph 24.2 mph N/A   Mostly Cloudy
10:53 AM 73.9 °F 68.0 °F 82% 29.93 in 10.0 mi NNE 17.3 mph 25.3 mph N/A   Mostly Cloudy
11:11 AM 73.4 °F 66.2 °F 78% 29.95 in 10.0 mi NNE 19.6 mph 26.5 mph N/A   Scattered Clouds
11:33 AM 73.4 °F 66.2 °F 78% 29.95 in 10.0 mi NE 13.8 mph 24.2 mph N/A   Mostly Cloudy
11:53 AM 73.9 °F 66.0 °F 76% 29.93 in 10.0 mi NNE 15.0 mph 27.6 mph N/A   Mostly Cloudy
12:53 PM 75.0 °F 66.0 °F 73% 29.92 in 10.0 mi NNE 13.8 mph 26.5 mph N/A   Mostly Cloudy
1:53 PM 75.0 °F 66.0 °F 73% 29.92 in 10.0 mi NNE 12.7 mph 23.0 mph N/A   Scattered Clouds
2:01 PM 75.2 °F 66.2 °F 73% 29.94 in 10.0 mi NNE 17.3 mph 23.0 mph N/A   Mostly Cloudy
2:53 PM 75.0 °F 64.9 °F 71% 29.92 in 10.0 mi NNE 19.6 mph 28.8 mph N/A   Overcast
3:53 PM 75.0 °F 66.0 °F 73% 29.91 in 10.0 mi NNE 12.7 mph 23.0 mph N/A   Overcast
5:20 PM 75.2 °F 66.2 °F 73% 29.93 in 10.0 mi NNE 12.7 mph - N/A   Mostly Cloudy
5:53 PM 75.9 °F 66.0 °F 71% 29.91 in 10.0 mi NNE 12.7 mph 18.4 mph N/A   Mostly Cloudy
6:53 PM 75.9 °F 64.0 °F 67% 29.91 in 10.0 mi NNE 10.4 mph - N/A   Mostly Cloudy
7:53 PM 75.0 °F 64.0 °F 69% 29.92 in 10.0 mi NE 9.2 mph - N/A   Overcast
8:53 PM 73.9 °F 63.0 °F 68% 29.93 in 10.0 mi North 8.1 mph - N/A   Overcast
9:53 PM 73.0 °F 61.0 °F 66% 29.94 in 10.0 mi NNE 9.2 mph - N/A   Mostly Cloudy
10:53 PM 70.0 °F 59.0 °F 68% 29.94 in 10.0 mi NNE 10.4 mph - N/A   Partly Cloudy
11:53 PM 69.1 °F 57.9 °F 68% 29.94 in 10.0 mi NNE 9.2 mph - 0.01 in   Clear